Regional Weather Roundup
Issued by NWS Little Rock, AR

Home | Current Version | Previous Version | Text Only | Print | Product List | Glossary On
Versions: 1 2 3 4 5 6 7 8 9 10 11 12 13 14 15 16 17 18 19 20 21 22 23 24 25 26 27 28 29 30 31 32 33 34 35 36 37 38 39 40 41 42 43 44 45 46 47
000
ASUS44 KLZK 221005
RWRLZK

WEATHER ROUNDUP FOR ARKANSAS
NATIONAL WEATHER SERVICE LITTLE ROCK AR
500 AM CDT WED OCT 22 2014

NOTE: "FAIR" INDICATES FEW OR NO CLOUDS BELOW 12,000 FEET WITH NO
SIGNIFICANT WEATHER AND/OR OBSTRUCTIONS TO VISIBILITY.

ARZ001-003-010-029-221100-
NORTHWEST ARKANSAS

CITY           SKY/WX    TMP DP  RH WIND       PRES   REMARKS
FAYETTEVILLE   CLEAR     45  45 100 CALM      30.14S
FORT SMITH     CLEAR     57  54  89 E6        30.12R
HARRISON       CLEAR     49  47  93 SE8       30.19R
BENTONVILLE    CLEAR     54  48  82 SE3       30.15R
ROGERS         CLEAR     55  53  93 E8        30.16R
SILOAM SPGS    PTCLDY    54  46  76 E5        30.15R
HIGHFILL       PTCLDY    52  50  93 NE3       30.14R FOG
$$

ARZ004-005-016-221100-
NORTH CENTRAL ARKANSAS

CITY           SKY/WX    TMP DP  RH WIND       PRES   REMARKS
BATESVILLE     CLEAR     46  45  93 W5        30.20R
FLIPPIN        CLEAR     45  39  81 CALM      30.20R
MTN HOME       CLEAR     48  46  93 E5        30.19R
$$

ARZ040-041-221100-
WEST CENTRAL ARKANSAS

CITY           SKY/WX    TMP DP  RH WIND       PRES   REMARKS
MENA           CLOUDY    52  52 100 CALM      30.14S VSB 1/4
MOUNT IDA      FOG       53  52  96 CALM      30.12S VSB 1/4
$$

ARZ009-017-025-026-028-221100-
NORTHEAST ARKANSAS

CITY           SKY/WX    TMP DP  RH WIND       PRES   REMARKS
CORNING        FAIR      46  45  93 NE8       30.22R
JONESBORO      CLEAR     51  46  83 NE8       30.18R
NEWPORT        CLEAR     48  46  93 N6        30.20R
WALNUT RIDGE   CLEAR     48  37  66 N6        30.20R
BLYTHEVILLE    CLEAR     47  44  90 NE7       30.19R
$$

ARZ022-023-033-042-044-221100-
CENTRAL ARKANSAS

CITY           SKY/WX    TMP DP  RH WIND       PRES   REMARKS
LITTLE ROCK    CLEAR     54  48  80 NE8       30.15R
N LITTLE ROCK    N/A     54  49  85 NE7       30.15R
JACKSONVILLE   CLEAR     47  44  91 CALM      30.16R
SEARCY         CLEAR     47  45  93 N6        30.18R
HOT SPRINGS    CLEAR     51  49  92 CALM      30.14R
RUSSELLVILLE   CLEAR     50  48  93 CALM      30.15R
$$

ARZ036-221100-
EAST ARKANSAS

CITY           SKY/WX    TMP DP  RH WIND       PRES   REMARKS
WEST MEMPHIS   CLEAR     49  47  93 NE6       30.16R
$$

ARZ050-053-066-070-073-221100-
SOUTHWEST ARKANSAS

CITY           SKY/WX    TMP DP  RH WIND       PRES   REMARKS
ARKADELPHIA    FAIR      53  53 100 CALM      30.13R
CAMDEN         FOG       48  46  93 CALM      30.12R VSB 1/2
TEXARKANA      CLEAR     55  55 100 E3        30.10R FOG
EL DORADO      CLEAR     51  50  96 CALM      30.10S
DE QUEEN       PTCLDY    57  56  96 CALM      30.09S FOG
$$

ARZ056-057-069-221100-
SOUTHEAST ARKANSAS

CITY           SKY/WX    TMP DP  RH WIND       PRES   REMARKS
PINE BLUFF     CLEAR     52  49  89 N3        30.13R
STUTTGART      CLEAR     48  45  87 N9        30.15R
MONTICELLO     CLEAR     52  49  89 CALM      30.11R

$$





USA.gov is the U.S. government's official web portal to all federal, state and local government web resources and services.